GFSSGP_sfc_dewp_000.txt.gz
Dewpoint
63 58 58 54 42 34 29 29 29 27 26 25 23 23 20 19 17 17 45 49 51 50 56 62 73 71 70 70 70 70 70 69 65 63 62 62 61 60 60 61 62 63 64 64 65 63 63 65 65
57 58 54 45 37 29 27 28 27 27 26 26 23 22 21 19 26 29 37 49 50 49 57 56 72 73 72 72 71 70 70 69 67 64 63 63 62 61 61 62 62 63 63 64 64 64 64 65 65
55 52 46 40 33 28 28 28 27 25 25 24 22 25 23 25 34 36 42 47 48 48 49 54 70 73 73 72 70 70 69 68 67 65 65 64 63 63 62 62 63 63 63 64 64 65 64 64 66
51 49 43 36 31 31 28 28 28 24 22 22 21 22 31 36 38 39 43 43 42 41 43 55 65 68 71 71 70 70 68 67 66 65 65 64 64 64 63 62 62 62 62 63 64 64 64 65 66
48 41 35 34 31 31 29 29 26 24 23 20 21 22 29 38 42 42 41 40 41 41 46 49 66 68 69 69 68 68 67 67 65 64 64 64 65 63 63 63 62 62 62 61 63 64 64 65 67
40 39 33 27 29 32 31 28 24 22 21 20 21 23 28 39 41 41 42 45 45 45 53 54 63 67 67 68 67 65 64 64 63 63 63 63 63 63 63 63 63 62 62 61 61 63 64 65 67
39 34 31 30 30 31 28 25 22 21 21 19 24 24 31 37 40 43 42 43 45 47 47 50 52 55 60 58 59 60 60 61 62 62 62 62 62 63 63 63 63 62 61 62 61 62 65 65 65
38 34 30 31 30 29 29 25 22 21 21 26 28 23 27 38 41 41 38 39 40 42 42 47 51 49 54 55 56 60 61 61 61 61 61 62 62 63 62 63 63 61 62 62 61 61 64 64 65
38 30 26 28 29 29 30 27 23 24 22 26 28 29 33 38 38 37 38 38 40 40 43 47 48 52 56 55 55 59 59 60 60 60 60 60 59 58 60 61 61 61 61 61 61 61 64 64 65
34 26 26 28 31 31 29 29 27 24 25 26 29 33 34 36 36 35 36 36 39 40 42 44 53 56 56 53 58 59 59 58 58 58 59 59 59 60 58 59 60 62 62 61 61 62 64 64 62
30 27 26 26 30 29 27 26 26 24 23 26 25 28 34 35 37 37 34 37 40 44 42 43 55 57 57 56 57 56 58 58 58 59 61 59 59 61 61 56 56 59 60 59 60 58 60 61 64
29 25 27 27 29 26 26 27 25 23 24 27 27 29 34 36 38 37 37 38 41 42 45 51 55 58 60 58 56 57 59 58 58 58 59 60 58 60 61 61 55 60 60 61 62 56 61 64 65
27 25 26 28 27 24 25 24 22 22 24 27 28 32 34 36 38 40 41 44 45 43 52 55 57 60 61 61 58 59 60 58 58 59 60 60 59 61 59 58 58 57 58 60 63 60 61 65 64
27 27 26 27 24 22 22 22 23 23 27 29 31 32 33 35 38 41 44 45 46 46 54 55 57 60 60 60 61 61 60 60 58 58 59 61 61 62 62 57 60 63 60 59 60 59 61 63 63
29 27 27 25 23 22 22 23 23 25 30 29 32 33 33 37 38 41 44 47 47 49 55 55 57 59 61 61 61 61 60 61 58 58 60 60 62 63 62 59 56 56 62 62 61 63 63 61 61
25 25 23 25 23 22 22 24 25 26 31 30 31 32 34 38 40 41 46 49 48 53 52 55 55 58 60 61 61 60 62 62 64 63 61 61 61 62 63 64 63 64 63 62 60 58 58 58 59
26 22 23 25 25 24 24 25 26 26 28 30 31 34 34 38 42 45 48 48 47 50 52 54 57 57 60 61 60 61 63 62 63 65 64 61 62 62 64 65 63 64 62 63 62 57 58 58 59
23 22 22 25 25 24 24 25 25 25 26 31 33 34 36 38 41 45 49 48 47 50 53 55 57 59 60 59 60 62 65 65 65 63 61 62 63 61 63 65 64 63 61 63 63 61 58 57 59
24 24 24 25 26 26 27 27 26 27 26 29 33 36 38 39 41 46 49 49 48 49 52 56 56 58 57 56 57 59 61 60 64 63 61 61 62 61 63 61 61 61 61 62 63 62 61 61 62
27 26 26 27 26 27 26 24 25 26 26 29 33 37 38 40 42 46 50 50 49 46 50 55 55 56 56 56 60 60 60 59 59 62 62 62 61 62 63 64 62 61 58 62 62 63 61 63 65
27 27 27 27 28 26 25 24 25 25 26 29 34 36 39 41 43 46 48 49 48 48 50 51 54 56 57 61 59 64 64 61 64 62 63 63 62 62 63 61 61 61 59 59 63 64 62 60 66
25 26 26 27 26 21 26 22 24 25 24 26 32 36 38 40 42 46 48 49 47 48 50 50 53 57 57 61 59 61 62 59 60 65 64 63 63 62 62 62 61 62 58 65 66 67 64 63 63
25 24 27 27 26 26 23 23 22 21 23 21 22 33 38 40 42 45 47 47 44 49 50 54 55 56 59 61 60 56 59 65 64 64 63 63 64 63 62 63 63 64 66 66 65 65 64 63 63
25 26 27 27 25 23 22 20 16 18 20 22 24 33 38 39 41 44 47 46 45 48 49 53 54 54 57 59 60 60 60 60 63 63 62 60 65 65 63 62 63 65 65 65 66 65 66 66 65
26 28 23 24 22 21 23 18 20 22 20 24 27 30 39 40 40 43 45 44 45 48 49 52 51 52 53 55 58 58 60 61 61 62 62 62 63 65 64 63 64 65 64 65 66 65 65 65 62
25 27 21 21 21 18 23 19 19 21 26 33 35 39 41 40 41 43 45 45 43 46 50 51 51 51 51 53 56 58 58 54 60 63 63 63 63 62 63 63 64 63 63 64 65 65 66 67 63
24 24 25 24 24 20 18 21 25 24 27 33 37 40 42 42 42 43 45 46 43 46 51 53 52 50 50 52 55 56 56 58 58 65 65 62 63 64 63 63 63 64 64 64 65 67 66 65 63
24 25 24 23 23 22 18 20 19 21 28 39 40 41 42 42 41 43 44 46 43 46 51 54 54 49 51 51 52 52 55 56 58 62 62 61 61 60 60 63 64 63 63 65 66 66 64 63 63
23 23 26 25 21 20 22 20 26 25 33 38 41 41 42 41 40 42 44 45 43 46 47 53 54 51 49 50 52 54 53 54 56 57 58 59 59 59 60 60 61 62 63 63 66 65 63 63 63
24 24 28 23 26 23 21 19 26 29 38 41 42 41 41 41 40 41 43 43 42 45 47 51 54 50 45 48 50 53 52 54 55 56 57 59 60 60 60 61 61 61 61 62 62 63 62 62 63

GFSSGP_sfc_dewp_003.txt.gz
Dewpoint
58 46 52 52 43 34 28 28 29 25 26 27 26 25 21 20 19 21 41 43 43 45 54 65 72 70 70 71 70 71 71 70 68 66 64 63 63 62 61 61 61 62 62 63 64 66 65 65 66
46 53 53 48 36 30 28 28 25 26 27 27 25 23 21 22 23 25 34 46 44 47 54 55 72 72 72 72 72 72 70 70 68 67 65 64 64 63 62 62 62 62 63 63 64 64 65 65 66
54 53 45 40 34 29 26 26 26 26 25 25 25 24 24 29 30 29 43 47 47 48 51 58 73 73 73 72 72 72 70 69 67 65 65 66 65 65 64 63 63 63 62 63 64 65 65 65 65
49 47 43 32 29 30 28 26 27 25 24 24 22 21 29 36 34 36 42 42 41 40 42 64 69 69 70 72 71 71 70 68 66 64 65 66 65 65 65 65 64 63 62 63 64 65 65 66 67
47 41 35 33 31 29 29 28 27 23 23 20 20 22 27 38 39 40 41 41 40 40 42 47 67 66 67 68 69 69 68 67 66 65 65 65 64 64 64 64 64 64 63 62 62 63 65 65 66
39 36 31 28 26 31 29 27 24 22 21 20 20 22 26 39 40 40 40 42 43 44 49 51 64 66 68 67 66 65 64 64 64 64 64 64 63 63 63 63 64 64 63 62 62 62 63 65 65
37 33 31 29 27 27 28 28 23 22 21 21 21 23 29 35 37 42 41 43 45 46 46 48 49 55 63 61 60 59 60 61 62 62 62 62 62 63 63 63 64 64 64 63 62 62 62 65 65
35 33 31 29 26 27 28 28 27 23 24 25 25 22 24 36 41 41 39 38 40 42 41 45 47 43 49 52 60 59 60 61 61 61 61 61 62 63 63 63 63 63 64 62 63 62 62 63 65
35 31 28 26 24 27 27 27 28 27 26 24 24 26 30 37 38 37 38 35 36 39 41 44 43 49 53 54 53 58 60 59 59 59 59 60 60 59 59 62 62 63 63 62 63 62 61 63 65
33 30 27 25 25 27 28 28 27 27 27 25 26 29 33 34 35 35 36 35 36 38 41 41 46 55 56 52 56 58 57 59 59 59 59 59 60 60 59 60 61 62 62 62 62 62 61 63 60
32 31 29 24 24 25 27 25 26 25 25 24 24 24 32 34 36 36 32 34 38 42 42 41 51 57 58 55 55 55 55 59 60 60 61 61 59 59 60 62 58 61 62 61 59 60 58 56 59
30 31 28 23 22 25 27 26 25 25 25 24 23 23 28 33 35 36 35 36 40 42 43 51 54 58 60 58 56 55 56 59 58 59 62 60 59 62 62 59 61 62 62 62 65 63 57 58 63
30 29 27 22 22 27 27 25 25 24 24 23 24 26 27 32 36 39 38 40 43 44 47 53 56 60 62 61 58 59 60 60 58 57 59 59 62 62 59 60 60 58 59 61 63 61 59 59 62
30 28 25 25 24 27 25 26 24 26 25 24 27 28 28 31 36 40 42 44 45 45 51 53 56 59 59 62 63 62 63 62 58 57 57 60 60 63 61 59 57 63 62 61 65 60 58 60 63
27 26 25 26 25 26 26 25 26 27 27 27 27 31 31 33 35 40 44 48 47 46 53 53 56 55 59 62 61 63 62 64 62 61 62 60 63 64 62 60 60 65 63 64 64 64 63 64 64
26 26 25 25 26 26 25 25 27 28 28 29 29 29 31 34 37 40 43 49 49 49 51 54 53 55 59 61 61 61 62 63 63 64 64 62 62 62 63 61 61 64 67 65 63 57 59 61 62
27 24 25 23 25 26 25 25 27 28 29 29 29 30 32 34 40 43 45 49 49 51 53 52 54 56 59 60 60 61 63 65 66 64 63 61 62 61 64 65 63 63 66 65 61 63 61 63 63
24 25 24 23 25 28 26 26 27 29 28 29 29 31 33 36 40 44 47 48 48 51 55 53 55 58 60 59 63 60 66 64 66 62 61 60 61 61 63 65 64 65 65 63 63 63 65 60 60
24 24 23 24 25 26 27 27 29 30 28 28 28 29 35 38 40 45 49 49 48 51 56 55 54 58 57 55 58 58 64 60 61 63 62 62 61 61 63 65 64 64 65 64 64 60 64 65 63
25 24 24 24 26 27 29 29 29 26 26 27 27 29 35 39 40 44 49 50 49 52 54 55 54 55 57 56 61 60 64 63 59 61 63 61 61 62 62 63 60 61 62 63 63 64 64 63 67
25 25 25 25 27 28 28 26 25 25 26 26 26 30 35 40 42 45 48 50 49 49 54 54 54 55 58 61 61 60 61 65 64 62 61 62 61 61 62 61 59 60 59 61 65 64 61 60 66
25 24 24 25 27 24 25 21 25 25 23 24 26 30 34 39 43 45 48 50 49 48 52 53 54 55 58 61 58 61 62 64 65 63 65 65 62 61 61 61 60 60 58 62 62 67 64 66 63
24 24 24 26 27 26 24 22 24 23 21 21 24 27 34 40 43 45 47 48 47 47 51 54 55 56 59 60 60 58 62 64 66 66 63 65 64 62 61 62 61 61 63 64 63 65 65 68 62
24 23 24 25 25 22 22 21 20 18 19 20 22 25 37 39 42 44 47 48 46 46 50 54 56 55 56 58 59 61 61 63 63 64 64 62 65 64 63 61 63 64 64 65 66 65 66 66 66
22 25 21 24 23 22 22 20 23 22 19 20 23 30 37 40 42 44 46 45 46 47 48 52 54 53 52 56 56 59 60 62 63 64 63 61 64 62 64 64 64 65 65 65 65 67 67 67 63
22 24 20 22 21 18 23 21 20 20 20 23 26 33 40 41 42 44 46 45 45 46 47 49 52 52 52 54 56 58 59 61 66 63 63 62 62 62 64 64 64 63 63 65 66 68 67 66 62
22 22 24 24 22 18 19 22 23 20 23 27 29 38 42 43 43 44 45 46 45 46 49 51 52 52 51 53 57 57 58 62 65 65 65 64 64 64 63 63 64 63 63 65 66 67 63 64 65
22 23 23 22 23 23 20 21 20 24 25 35 37 40 43 42 42 43 44 47 44 45 50 52 52 50 51 52 53 54 57 60 61 60 61 63 63 63 63 63 64 64 63 64 66 67 64 63 64
17 17 24 26 22 20 22 20 27 25 32 36 38 41 41 41 40 42 43 47 41 44 46 52 52 48 50 51 53 54 56 57 58 60 61 60 62 62 62 62 62 63 64 65 66 66 64 63 63
22 20 24 22 26 23 22 22 25 28 33 35 37 39 39 40 40 41 43 45 39 43 45 49 52 47 46 49 51 52 55 57 59 60 61 62 62 61 62 62 61 61 62 65 64 62 63 62 62

GFSSGP_sfc_dewp_006.txt.gz
Dewpoint
62 51 47 46 44 40 32 30 33 26 26 27 27 24 24 22 20 27 46 44 41 60 67 68 72 72 71 71 71 71 71 70 70 68 67 64 64 64 63 62 62 61 61 61 62 62 66 66 65
37 40 51 46 43 36 31 33 28 26 25 26 25 24 22 23 23 29 38 45 42 55 67 66 72 72 72 72 71 71 71 71 70 68 68 66 65 65 64 63 63 63 62 62 62 62 63 65 66
55 51 46 42 40 33 30 30 26 25 24 24 24 25 24 31 30 31 45 46 45 53 58 70 72 72 72 72 72 72 72 70 69 67 66 65 66 66 65 65 65 64 63 63 62 62 63 65 66
53 47 44 37 30 28 31 29 27 25 22 24 22 21 30 34 33 36 40 40 41 40 52 70 73 73 72 71 72 72 71 70 69 66 65 65 65 66 65 65 65 65 64 63 62 63 65 65 66
49 41 37 36 31 33 34 30 28 23 20 20 20 20 32 35 36 38 40 40 40 48 53 64 71 69 67 67 69 70 69 68 67 66 65 65 65 65 64 65 65 64 65 64 62 62 64 65 66
40 38 34 29 26 29 32 29 25 22 20 20 20 21 34 38 37 38 39 43 42 50 56 61 67 67 67 69 69 66 64 63 63 64 64 64 64 64 64 63 63 63 64 65 63 62 62 64 66
39 36 32 30 28 28 29 31 28 27 21 21 23 23 34 38 37 42 43 47 50 50 53 57 58 65 67 67 64 62 60 60 61 62 62 62 63 63 63 63 63 63 64 64 64 62 63 64 64
37 34 31 30 29 27 29 29 29 28 24 26 25 23 27 39 41 42 40 40 42 44 43 54 58 52 59 62 62 62 61 60 60 61 61 61 60 61 62 63 63 64 64 64 64 63 62 63 65
37 33 31 30 26 25 26 26 29 29 27 27 25 24 30 37 39 37 40 36 36 40 49 51 49 55 58 57 58 62 62 62 61 60 59 59 60 60 60 62 63 63 64 64 64 63 63 63 64
34 33 31 31 28 24 24 25 27 26 28 27 26 27 33 35 36 34 36 38 40 42 48 51 56 60 61 54 61 62 61 61 62 62 62 61 61 62 60 60 61 62 63 63 63 63 63 61 61
33 31 31 32 31 26 23 23 27 25 26 26 25 25 32 32 38 36 32 36 44 48 50 52 58 61 63 60 61 61 60 62 63 62 63 62 61 60 60 62 63 63 62 62 62 61 61 59 59
31 32 31 31 30 26 21 22 27 25 26 26 25 25 31 35 37 37 37 45 44 49 52 57 60 63 65 63 60 60 61 62 60 62 63 62 61 62 63 62 62 63 64 63 64 62 62 60 60
33 31 30 30 29 27 22 23 27 25 26 25 24 25 29 34 38 44 46 49 48 51 53 59 61 64 66 66 64 64 64 60 62 62 62 62 61 62 63 63 62 62 62 63 63 63 61 59 60
32 31 29 29 29 26 23 25 26 27 28 25 25 26 28 31 36 45 48 50 52 53 56 59 61 64 65 65 65 65 65 63 63 64 60 62 62 62 63 61 63 63 62 63 63 62 63 62 63
30 28 27 27 26 25 26 25 26 27 28 28 28 29 31 33 33 40 48 53 54 54 59 60 61 62 64 64 65 66 65 65 65 64 62 62 64 63 63 63 63 62 63 62 63 63 63 63 64
27 28 23 25 26 25 26 25 27 28 29 31 29 29 31 37 37 43 48 54 57 57 59 60 55 60 64 65 65 65 66 67 66 66 64 61 62 63 64 63 62 63 63 63 62 63 64 63 63
27 24 24 24 25 24 24 26 27 28 30 33 33 33 32 35 43 50 47 53 56 58 60 60 61 60 63 65 64 65 66 66 68 67 63 62 61 62 64 63 63 63 63 62 63 62 62 63 63
25 22 22 24 26 23 24 26 28 29 28 35 35 34 35 37 43 47 50 53 56 58 61 62 62 63 65 63 63 64 67 67 67 65 62 61 60 62 64 63 63 64 63 62 62 62 63 62 62
24 22 23 26 24 27 29 31 29 29 29 32 35 37 40 41 44 48 51 53 55 58 61 62 62 64 64 61 63 64 64 67 66 66 63 62 62 61 63 63 63 64 63 62 62 62 62 62 62
21 22 23 23 22 23 24 26 29 29 32 32 31 34 38 42 44 47 52 54 56 58 60 62 63 63 64 63 66 65 65 65 65 66 65 63 62 63 63 63 63 63 63 62 62 63 62 61 63
23 24 24 23 23 24 26 27 29 28 29 28 31 35 37 44 44 48 50 54 54 57 59 61 62 63 64 66 66 66 66 65 65 65 65 63 63 63 63 63 63 63 64 62 62 62 61 61 62
24 22 23 24 24 22 25 24 30 28 29 27 26 33 36 43 45 48 51 54 55 54 57 60 62 63 63 65 64 65 64 63 64 65 65 63 62 62 63 63 62 63 64 62 62 63 62 61 60
22 22 23 24 25 25 24 23 24 28 27 25 24 27 37 43 45 47 49 52 52 54 58 60 62 63 64 65 65 64 64 65 65 64 63 64 62 63 62 63 63 62 63 63 62 62 62 63 62
20 22 24 24 23 23 24 24 23 24 22 21 21 24 37 41 45 47 50 52 51 52 56 60 62 62 64 65 63 65 63 64 64 62 63 64 64 63 63 62 63 63 63 64 65 64 63 64 63
21 27 22 24 21 22 23 22 26 28 23 19 21 33 40 43 44 47 49 49 50 51 55 57 60 60 61 62 62 63 64 63 64 63 62 63 63 63 63 64 64 65 64 65 65 65 63 64 64
22 28 21 22 21 20 25 24 22 23 22 22 23 34 42 43 45 47 49 49 48 50 54 55 58 58 59 60 62 63 64 64 64 62 62 63 64 64 64 64 65 65 64 64 65 64 65 64 63
24 23 23 23 21 18 20 26 27 26 22 23 26 38 45 45 47 47 48 49 50 51 55 57 58 58 59 59 63 63 64 64 65 64 64 62 64 64 64 64 64 64 64 63 63 63 63 64 63
26 22 22 21 23 24 20 21 21 25 24 31 36 40 47 46 45 46 47 50 50 52 55 58 58 57 58 59 61 60 62 64 64 65 65 62 64 64 63 63 63 64 64 64 64 64 64 63 62
23 21 24 26 22 22 23 21 33 31 38 43 40 42 46 45 43 45 46 49 47 49 50 57 57 55 57 58 59 61 62 62 63 63 63 61 63 63 62 62 63 63 64 63 64 63 63 62 62
25 24 27 24 28 24 22 22 33 35 33 41 40 42 42 43 43 43 44 48 44 47 50 54 57 52 54 55 57 60 62 62 63 63 63 61 62 63 62 62 62 63 64 65 63 62 62 62 61

GFSSGP_sfc_dewp_009.txt.gz
Dewpoint
67 63 55 46 42 43 39 37 34 25 26 27 26 24 24 22 24 36 44 49 62 62 67 70 72 72 71 71 71 71 71 70 68 68 67 66 64 64 64 63 62 62 62 61 61 61 62 65 65
55 48 42 48 43 42 39 38 31 25 26 26 25 25 25 28 34 39 41 51 62 64 68 68 72 72 72 72 71 71 71 71 70 69 68 68 66 65 65 65 64 63 63 63 62 62 62 62 63
49 40 46 45 43 40 39 38 33 25 24 24 25 26 31 32 36 44 45 47 63 65 65 67 72 72 72 72 72 72 72 71 70 69 67 66 66 67 66 66 66 65 65 64 63 62 62 62 63
49 53 48 40 37 37 34 35 29 25 22 24 24 28 34 39 37 44 46 45 46 53 64 70 72 72 72 71 72 72 72 70 70 68 66 65 65 67 67 65 65 65 65 65 64 63 62 63 65
53 49 40 39 38 38 34 35 26 23 21 22 21 29 35 40 42 42 42 40 41 61 68 71 73 73 73 71 71 72 70 69 67 67 66 65 65 65 65 65 65 65 65 65 65 64 63 65 65
46 41 36 33 33 31 31 35 33 26 26 22 23 35 36 38 39 40 42 40 47 58 63 66 71 70 70 69 69 69 67 65 64 64 64 64 65 65 65 65 64 64 64 63 65 65 65 65 65
44 40 36 35 32 30 30 34 31 28 24 24 25 28 39 37 39 40 42 45 46 50 59 62 64 66 70 70 69 68 65 62 61 61 62 62 62 63 63 63 63 63 63 64 65 65 65 65 64
42 39 35 33 31 29 31 30 31 30 27 28 27 25 36 39 42 42 42 43 42 43 46 51 61 63 64 64 65 64 62 62 62 62 61 61 61 61 61 62 63 63 63 64 65 65 64 65 65
43 36 34 33 31 31 27 24 27 29 27 29 26 26 38 42 41 39 39 41 41 43 44 44 49 53 56 60 61 63 63 63 63 61 59 58 58 59 60 62 63 64 64 64 64 65 64 64 63
40 35 34 35 33 31 29 25 23 27 28 30 30 35 40 40 39 38 39 37 37 40 46 50 54 55 55 56 59 60 59 61 60 59 59 59 59 59 60 61 61 62 63 64 64 64 64 63 60
37 35 34 33 33 32 31 24 23 23 27 31 28 33 36 38 38 37 36 36 42 43 49 50 52 56 56 57 59 58 57 59 59 59 60 59 59 59 58 60 60 60 62 62 63 62 61 60 59
36 35 34 33 33 32 30 27 25 23 28 29 29 34 34 35 36 36 35 41 42 44 47 55 57 57 58 60 59 59 60 59 58 59 60 59 59 59 59 60 60 60 61 61 61 61 61 60 58
36 35 34 33 33 30 29 28 27 23 30 33 27 29 36 36 36 38 38 44 44 45 51 56 56 58 60 60 60 60 60 60 59 60 60 61 59 59 59 60 60 59 60 60 60 61 61 60 58
35 33 33 33 33 30 29 29 27 28 31 29 25 27 28 30 38 41 42 44 45 46 52 54 55 59 60 60 60 60 61 61 61 61 60 61 60 60 59 59 59 59 59 60 60 60 61 60 58
27 27 27 29 30 28 29 28 26 31 29 29 27 27 28 32 41 40 44 46 47 47 53 54 55 57 57 58 59 61 61 62 61 61 60 61 61 61 59 59 59 58 59 59 60 60 60 60 61
25 26 26 28 29 27 26 25 28 30 29 31 31 31 32 35 36 43 46 49 49 50 53 53 54 56 56 59 59 61 62 61 62 62 61 60 61 61 59 59 59 59 59 58 59 59 59 60 60
23 22 25 27 28 27 27 25 28 31 28 31 34 35 33 35 43 47 49 51 49 49 53 53 55 54 57 58 60 60 61 61 62 62 60 60 59 60 60 60 60 59 59 59 59 59 60 59 59
21 23 24 26 27 25 25 28 29 31 29 31 33 35 36 41 43 48 51 51 51 53 54 53 54 56 58 58 61 60 61 62 62 61 60 60 59 60 60 60 60 59 58 58 58 58 59 59 59
22 24 24 26 26 24 30 29 31 33 31 30 35 37 39 41 46 48 51 52 52 54 55 55 55 55 57 57 59 58 58 60 61 62 61 60 59 58 58 60 59 60 58 58 58 58 58 58 59
24 22 22 24 25 28 29 29 31 33 32 33 33 34 36 45 45 48 51 51 51 52 54 57 55 56 56 58 60 60 61 62 62 62 61 61 61 61 60 60 59 60 59 58 58 58 57 57 59
24 24 22 23 26 26 27 27 29 32 32 32 33 34 42 43 45 47 50 51 51 51 53 56 56 55 57 59 61 60 61 60 60 61 60 60 60 61 60 60 59 59 59 59 59 58 57 56 59
22 25 23 22 25 24 29 24 28 29 29 30 29 36 42 43 45 47 50 51 50 53 54 56 56 55 57 58 59 58 58 58 60 61 62 61 61 60 60 60 60 59 59 59 60 60 59 60 59
22 23 22 24 24 25 24 24 26 29 29 28 27 35 41 43 46 48 50 51 51 51 54 55 54 55 58 58 58 59 59 60 61 60 60 58 60 61 61 60 59 59 59 58 60 57 60 60 59
23 22 24 24 25 24 26 26 24 28 27 25 24 29 43 44 46 49 50 51 50 53 53 55 56 56 58 59 58 59 59 60 59 58 58 59 60 60 61 60 60 59 59 59 60 59 60 59 60
23 21 20 24 21 23 24 24 24 29 30 23 36 40 42 44 46 49 49 49 50 51 53 54 55 53 54 56 57 60 57 60 58 58 58 59 59 59 59 59 60 60 59 61 61 61 61 61 61
17 21 20 21 24 22 24 22 23 30 29 30 37 41 43 44 46 48 49 48 49 49 53 52 54 53 52 55 57 59 59 60 59 58 59 60 59 59 60 60 60 61 61 61 61 60 61 62 62
18 21 22 22 26 22 23 25 34 27 25 31 40 41 43 45 47 47 48 48 49 49 50 49 54 51 54 56 56 60 60 60 60 59 60 60 60 61 61 61 61 61 61 61 61 62 62 62 62
15 25 22 26 19 21 23 25 27 26 25 38 42 42 45 46 47 47 47 48 49 49 49 51 54 52 53 54 56 59 60 60 61 61 61 59 60 60 61 62 61 61 61 62 62 62 61 61 61
14 23 24 22 22 22 22 26 30 30 38 39 43 44 44 44 45 46 47 49 49 50 50 51 52 52 51 53 53 58 59 60 61 61 59 60 59 61 61 62 62 61 62 62 61 62 60 60 60
18 23 26 20 26 23 25 26 39 41 42 41 43 44 44 43 45 45 46 47 47 48 50 50 52 51 51 53 53 58 59 60 61 62 60 60 60 61 61 62 62 62 61 61 61 61 61 60 59

GFSSGP_sfc_dewp_015.txt.gz
Dewpoint
67 64 54 46 42 42 41 40 38 38 28 27 26 24 22 23 22 22 45 59 58 56 64 70 72 72 71 70 70 70 69 68 66 65 63 64 64 64 64 64 63 63 62 62 62 62 61 60 60
62 54 45 48 42 41 40 43 39 34 27 26 23 24 24 27 40 44 53 58 59 61 65 69 72 72 71 71 71 70 69 68 67 66 66 66 66 66 65 64 65 65 64 64 64 63 63 62 61
53 43 40 47 43 41 40 42 39 37 33 25 25 32 31 34 43 46 49 59 58 61 66 68 72 72 72 71 71 71 70 69 68 67 68 67 68 67 67 66 65 65 65 64 63 63 63 64 63
45 52 49 44 41 42 42 42 41 39 25 25 28 31 33 39 42 43 56 58 58 59 63 68 72 72 72 72 72 71 70 69 69 68 69 68 67 66 67 66 66 66 65 65 64 64 65 64 64
53 49 45 42 42 41 40 40 34 27 25 23 29 31 32 38 45 49 61 58 56 60 64 67 72 73 73 72 71 71 71 71 70 69 69 68 67 67 66 66 65 65 65 65 64 65 66 66 65
47 44 38 36 36 36 37 36 34 32 30 28 31 31 32 39 45 51 60 60 59 62 64 67 72 73 72 72 72 72 72 71 71 70 68 68 67 66 66 66 65 64 64 64 64 65 66 66 66
45 43 40 37 38 36 36 34 32 32 31 24 31 30 34 39 43 46 51 58 60 63 65 69 70 71 72 72 72 72 72 72 70 69 68 66 63 63 63 63 64 64 64 63 64 65 66 66 65
45 42 40 38 36 34 35 33 31 31 28 32 37 32 33 37 42 44 53 57 61 65 66 67 67 68 68 69 72 72 70 69 68 67 63 62 63 63 63 63 62 62 63 64 64 63 66 66 66
43 39 37 37 35 35 35 34 36 30 27 28 27 36 37 40 43 45 46 50 54 58 59 61 63 64 65 65 66 69 68 67 65 63 63 64 61 59 59 60 61 62 63 64 64 63 65 65 64
41 40 37 36 38 36 37 37 36 31 32 27 30 36 42 39 41 43 44 46 47 52 50 58 59 61 61 61 60 62 61 61 61 62 60 59 58 57 59 60 61 62 62 63 63 64 64 64 62
42 38 37 37 40 40 38 37 37 34 32 29 28 32 40 39 40 41 42 43 44 47 47 52 55 56 56 57 58 59 60 59 59 60 59 58 58 58 58 58 58 58 61 60 61 62 62 63 61
39 41 40 38 39 40 38 38 36 35 34 34 31 35 40 39 39 40 41 41 40 44 48 53 54 54 55 57 58 58 58 58 58 59 58 58 57 57 57 57 58 58 59 58 59 60 61 61 61
39 38 38 40 41 40 39 37 36 35 36 36 32 39 40 39 39 40 40 40 42 45 49 52 55 56 57 58 58 58 58 59 58 58 58 58 57 57 57 58 59 59 58 58 58 59 60 60 60
37 38 39 40 41 40 38 37 37 35 36 33 32 38 39 39 39 39 39 41 44 46 49 54 56 58 59 58 58 58 58 59 59 59 59 59 58 58 58 59 59 57 57 57 58 58 59 59 59
25 24 25 28 32 33 36 31 32 33 33 32 32 33 37 39 39 39 39 41 44 50 54 55 56 58 58 58 58 58 58 59 59 59 59 60 59 58 58 59 58 56 57 57 57 58 58 58 58
24 26 23 25 28 29 27 26 29 29 31 32 32 30 34 37 39 39 40 43 47 54 54 55 57 58 57 56 57 58 59 59 59 59 59 60 60 59 58 57 57 57 57 56 56 57 57 57 57
24 19 21 22 26 27 28 26 29 32 32 32 31 32 30 32 37 39 44 45 50 53 54 54 56 56 56 56 57 57 58 59 59 60 60 60 60 60 58 57 57 58 57 56 56 56 56 56 56
18 21 19 19 23 25 24 26 28 30 31 30 31 33 34 32 33 40 46 47 52 53 54 54 54 54 56 56 56 58 58 58 60 60 60 61 60 59 57 56 57 58 56 55 55 55 57 56 56
23 21 21 22 25 25 26 28 28 29 29 31 32 32 34 38 43 48 48 49 53 53 54 53 54 55 56 54 56 56 56 58 58 59 61 61 60 59 57 56 58 58 56 56 56 55 56 56 56
24 22 22 23 25 25 25 24 26 27 27 30 32 33 36 45 47 48 48 50 52 53 53 53 53 56 55 56 57 58 57 59 59 59 61 62 61 59 58 57 58 57 56 56 56 56 56 55 56
24 21 21 21 27 26 25 25 26 26 29 32 35 34 39 42 47 47 48 51 52 52 53 54 54 55 55 57 57 57 57 58 58 58 59 59 61 61 59 58 58 57 56 55 55 56 56 54 57
17 20 20 21 23 22 27 23 26 27 28 29 28 29 34 45 48 47 47 50 52 52 54 54 55 54 56 57 56 55 56 55 56 57 58 59 60 60 60 59 58 57 57 55 56 57 56 56 55
18 22 25 25 23 24 25 23 24 29 27 28 28 29 40 45 47 47 48 49 50 52 54 55 54 54 56 56 56 56 54 56 57 57 56 56 59 60 60 58 57 57 57 56 56 56 56 56 56
19 22 25 25 25 22 23 24 23 24 26 27 29 40 42 44 47 48 48 49 50 52 54 54 55 56 56 57 56 55 55 55 55 55 56 56 58 58 58 58 57 57 56 57 57 57 56 56 58
16 19 19 20 21 22 23 24 23 27 29 30 27 39 44 47 48 47 47 48 50 52 53 52 53 54 56 56 57 54 56 55 53 56 56 56 57 56 56 57 57 56 57 57 56 57 56 58 58
14 17 23 18 20 21 24 23 24 29 30 32 31 40 45 47 48 46 47 48 50 52 53 53 53 53 55 56 56 55 56 56 56 57 57 56 56 56 56 57 58 57 58 58 57 57 56 58 58
12 18 21 20 25 21 23 25 28 33 37 39 42 44 45 47 48 47 47 49 50 51 52 54 52 52 54 56 56 56 56 56 57 56 57 57 57 58 57 58 58 58 59 58 58 58 59 59 58
13 14 12 19 18 19 22 23 24 26 35 41 42 43 45 47 48 48 48 48 50 51 52 54 52 51 54 55 56 57 57 58 58 58 57 57 58 58 58 58 58 58 58 59 60 60 61 60 61
13 13 16 13 18 20 19 22 29 25 35 39 41 43 45 47 47 47 47 47 49 50 50 52 52 52 53 54 55 58 58 58 57 57 57 57 58 58 58 58 58 58 59 59 59 59 60 59 60
14 12 13 19 21 20 22 21 28 28 34 38 40 43 45 47 47 47 47 47 48 49 47 52 51 52 51 54 56 58 58 58 57 57 58 58 58 58 59 59 59 59 59 58 59 59 59 59 60

GFSSGP_sfc_dewp_021.txt.gz
Dewpoint
63 58 50 46 41 42 39 40 40 39 36 30 28 31 28 29 36 25 51 58 58 54 60 69 72 72 70 70 69 69 68 68 66 64 64 63 63 63 63 63 63 63 62 62 62 62 62 61 61
58 52 49 48 42 38 39 43 41 40 40 36 27 25 24 25 31 39 50 58 56 56 63 65 73 72 71 70 70 70 69 68 67 66 65 64 64 64 64 65 65 64 64 64 64 64 64 63 63
51 45 45 46 45 38 36 41 41 42 41 38 28 25 27 29 38 44 52 59 56 59 63 68 73 72 71 71 71 71 70 69 68 65 65 64 64 65 66 66 65 64 64 63 64 64 63 64 64
44 47 48 42 41 44 42 41 44 41 36 31 26 27 32 35 39 43 55 58 56 56 62 67 72 72 72 72 72 71 71 70 68 66 66 66 66 68 68 67 67 66 66 65 65 65 66 65 65
52 50 38 44 43 43 44 44 43 39 37 32 27 28 32 35 42 48 56 58 56 56 59 64 72 73 72 72 72 72 71 70 70 68 67 67 68 68 68 67 67 66 66 66 65 65 67 67 67
44 47 40 35 37 40 41 41 39 37 34 32 27 29 32 37 43 47 55 59 58 59 61 65 71 73 72 72 72 72 71 71 71 70 70 69 69 68 68 67 65 65 65 65 66 65 67 66 66
41 43 34 37 35 36 37 39 36 32 34 31 29 29 33 35 40 49 55 58 58 61 62 66 67 71 73 72 72 72 72 72 72 71 70 70 68 68 67 64 63 64 64 65 65 65 66 65 65
45 43 36 37 30 29 36 35 32 34 34 33 32 32 36 38 44 52 56 56 57 59 61 64 67 67 68 68 72 72 72 72 72 72 71 71 68 66 63 64 63 63 63 63 64 64 64 65 66
45 38 31 30 31 27 35 34 36 36 37 35 35 37 37 41 46 50 55 55 55 58 60 63 63 66 67 67 68 72 72 71 71 70 70 68 63 61 62 62 63 62 62 62 62 63 64 64 64
41 38 33 32 31 31 35 35 37 38 37 37 38 40 38 40 43 44 50 50 54 56 58 60 64 66 67 66 69 69 68 66 67 66 66 64 63 63 62 62 62 62 62 62 62 63 65 64 62
41 38 36 34 35 36 35 36 37 36 35 35 37 39 41 41 43 44 43 46 48 54 57 61 65 67 67 65 67 66 66 65 66 67 66 64 63 63 62 61 60 61 61 59 60 60 59 60 60
38 40 39 37 37 37 36 37 38 38 38 40 40 42 42 42 43 42 43 44 49 52 56 62 65 67 68 65 65 63 63 63 61 62 65 64 62 63 63 60 60 61 59 61 62 60 62 62 62
40 37 39 40 40 40 40 39 39 38 38 38 40 42 42 42 42 44 45 45 47 51 55 60 64 66 66 65 62 61 61 60 61 62 63 62 61 63 63 61 60 61 59 60 61 61 60 61 63
31 36 37 38 38 38 37 36 37 38 40 38 39 38 37 38 40 42 46 49 51 53 54 59 63 65 64 62 63 61 62 61 61 61 61 64 62 63 61 61 60 61 61 61 60 59 60 60 63
34 34 35 35 36 36 33 28 29 31 33 34 34 36 37 38 38 41 46 52 52 52 54 58 61 63 63 62 62 62 60 61 61 61 64 63 64 64 63 62 63 63 62 61 61 61 61 61 62
23 25 20 21 26 26 25 22 23 28 30 32 33 34 35 38 40 41 46 52 52 52 54 57 56 60 61 62 62 60 61 61 62 62 63 64 65 65 64 63 62 63 62 60 59 60 59 60 61
25 18 21 20 25 24 27 22 21 28 30 31 32 32 33 35 40 47 47 48 53 54 56 57 59 58 61 63 61 62 63 62 62 63 63 64 64 64 64 63 62 63 61 60 61 60 59 61 62
20 21 20 20 19 19 18 21 22 27 28 31 32 33 35 38 40 44 47 49 53 54 58 60 60 61 62 61 61 61 61 61 62 63 62 64 64 64 64 62 62 62 61 59 61 61 60 61 61
21 22 22 22 19 18 18 21 26 29 28 29 32 35 38 41 42 45 47 51 54 56 58 60 60 62 61 58 57 59 58 61 62 63 64 64 64 64 63 61 61 61 59 60 61 61 61 62 62
18 20 21 21 20 22 22 23 26 29 30 29 31 35 37 39 41 48 49 53 54 56 58 59 61 62 61 59 60 61 62 62 63 63 64 64 64 64 63 63 59 60 60 61 61 61 60 62 62
19 18 18 18 19 24 25 23 25 25 29 30 31 36 38 40 42 49 50 53 54 56 58 59 61 61 61 61 62 63 63 63 61 63 63 64 63 63 63 62 61 61 62 62 61 60 60 59 61
19 20 18 18 20 17 24 20 26 26 26 27 30 35 37 38 46 49 51 53 55 56 58 59 60 61 61 63 61 63 61 59 61 62 63 63 62 63 62 63 61 62 62 62 60 60 59 62 59
18 20 22 21 21 23 23 22 22 25 25 26 29 35 38 41 47 49 51 53 54 56 57 59 60 61 62 63 63 61 61 61 62 62 62 63 63 63 61 62 62 62 61 62 61 61 61 60 63
22 21 22 25 23 22 23 20 19 20 23 25 30 33 41 47 48 50 52 53 55 55 56 58 60 61 62 62 63 62 61 61 60 60 60 61 63 63 62 61 62 63 62 61 60 61 61 62 64
23 24 20 19 19 19 21 21 23 24 25 30 31 33 44 48 49 50 51 52 54 55 56 58 59 59 61 61 62 60 61 61 60 60 61 62 61 63 62 63 63 62 62 62 61 62 62 62 62
23 25 17 15 16 14 22 19 20 29 28 29 32 35 44 48 49 50 51 52 53 55 57 57 58 59 60 61 61 61 61 60 61 61 61 62 62 61 63 62 62 62 62 62 62 60 60 62 63
21 22 22 19 25 18 22 26 31 32 32 34 33 39 45 49 49 50 51 52 53 56 57 58 58 59 60 61 61 61 61 62 62 62 63 62 63 61 62 62 62 62 62 61 63 61 61 62 62
22 24 20 18 13 12 19 25 21 29 30 33 38 42 46 49 49 49 50 52 54 56 57 58 57 58 58 60 60 60 61 63 62 63 62 63 63 62 62 62 62 62 63 62 63 61 62 62 62
14 19 19 19 18 10 11 14 34 32 34 35 40 44 47 48 48 48 49 51 53 55 55 56 56 56 57 59 60 61 62 61 61 62 63 62 63 62 61 61 61 62 61 61 62 62 61 61 61
16 18 21 14 20 18 18 18 31 36 34 38 40 45 47 48 48 48 49 50 52 53 54 55 56 55 56 58 58 61 61 60 61 62 62 63 63 62 61 61 61 60 60 61 60 60 59 60 59

GFSSGP_sfc_dewp_027.txt.gz
Dewpoint
60 47 45 42 35 25 25 24 31 32 33 32 31 31 29 29 27 28 47 48 46 49 64 68 72 72 71 70 70 69 69 68 66 65 64 63 62 61 60 60 60 60 61 61 61 62 62 63 62
36 36 42 39 28 23 20 25 33 33 35 37 36 33 32 29 30 32 41 50 47 49 65 62 72 72 72 71 70 70 70 69 67 66 65 64 63 63 62 63 63 63 63 63 63 63 64 65 64
51 38 40 33 31 24 27 38 35 35 36 34 31 32 29 31 34 34 47 50 48 50 62 63 72 72 72 71 71 70 70 69 67 66 66 65 65 65 65 65 65 65 65 65 65 65 64 65 65
39 40 37 35 32 31 30 34 34 33 34 31 29 27 30 36 34 37 47 48 47 47 55 68 72 72 72 72 71 71 70 70 69 67 67 66 66 66 66 65 66 66 67 66 66 66 65 66 66
38 36 31 27 24 25 29 33 35 33 31 29 29 28 31 37 38 39 46 47 46 46 51 63 73 73 73 72 72 71 71 70 70 68 67 67 67 68 67 67 68 68 68 67 67 67 67 67 67
36 34 31 24 22 23 29 33 35 34 32 30 29 28 30 36 38 38 43 49 46 47 52 57 72 73 72 72 72 72 71 71 71 70 69 69 69 69 68 68 69 67 67 66 65 66 67 67 66
34 33 29 26 22 22 28 29 31 30 28 28 31 31 32 36 41 42 44 46 50 48 52 55 69 71 73 72 72 72 72 72 71 71 70 70 70 70 69 69 68 67 65 64 64 65 65 66 66
32 32 28 27 25 21 25 27 28 28 29 35 34 31 32 38 41 41 41 42 45 49 49 54 61 67 69 67 73 72 72 72 72 72 71 71 70 70 70 69 67 65 63 64 63 63 64 65 66
33 30 28 28 27 25 25 27 28 31 32 32 33 33 34 36 37 38 39 39 41 43 50 53 53 60 65 63 66 72 72 72 72 70 71 71 65 62 65 66 65 65 64 63 63 63 63 63 64
34 36 32 30 28 27 27 27 28 31 31 32 32 33 34 35 38 38 37 36 37 40 46 50 56 60 62 59 66 69 66 66 66 65 66 67 66 63 60 64 63 64 64 64 63 63 63 63 58
35 35 35 32 31 31 29 28 29 29 30 31 31 33 34 36 38 38 37 35 36 40 43 49 63 66 63 60 60 65 65 64 65 67 69 68 63 61 59 60 62 63 65 62 62 61 61 59 57
30 35 35 33 33 31 31 31 31 31 33 34 34 35 36 36 35 35 35 34 34 36 45 47 56 67 69 62 59 61 63 63 63 63 70 68 62 63 63 60 59 62 60 61 61 58 63 60 58
29 28 29 30 31 32 32 32 32 32 34 34 34 35 35 35 35 34 34 34 36 39 43 48 58 68 70 71 61 63 64 61 62 62 64 63 60 64 61 62 61 63 60 59 59 62 63 63 60
29 29 28 28 28 30 31 31 31 34 35 34 33 33 33 33 31 33 36 38 42 47 47 51 57 69 68 69 72 68 68 62 60 59 60 65 62 65 61 63 63 61 62 61 61 62 61 61 61
29 29 30 30 28 27 28 27 29 30 32 32 32 32 32 31 30 33 36 45 46 46 56 58 62 68 71 70 70 68 64 64 59 58 63 61 65 65 66 61 62 65 69 65 65 63 64 60 58
26 30 28 29 29 27 28 29 30 31 31 32 30 28 29 31 31 35 37 46 50 53 57 56 53 62 70 70 69 66 61 61 57 57 59 64 66 66 65 63 62 66 67 68 64 64 63 62 58
29 26 27 27 29 28 28 28 30 31 31 32 31 30 29 31 34 42 38 40 50 55 57 57 62 61 67 71 67 67 67 60 57 58 59 62 64 64 66 64 66 68 67 68 65 65 63 63 60
24 24 25 25 26 26 26 27 28 29 27 29 30 29 30 31 34 40 43 40 48 54 58 61 62 66 70 67 67 61 59 59 57 58 59 62 63 65 65 65 68 67 65 63 64 64 63 63 64
22 23 23 24 25 25 25 26 27 29 28 28 30 31 32 33 37 38 40 50 53 56 60 63 63 69 67 63 60 58 56 58 56 58 61 62 62 63 66 65 67 65 62 63 64 62 61 64 63
19 20 22 24 24 25 26 26 27 28 28 29 29 31 32 34 35 36 39 53 55 58 61 62 63 67 66 62 62 58 58 55 56 57 61 62 63 66 64 66 66 65 63 63 62 63 61 63 64
17 19 22 22 24 25 25 23 24 25 28 29 30 31 32 34 35 38 38 54 56 58 61 62 64 66 66 66 62 61 60 61 58 57 59 62 63 64 65 65 65 64 65 61 63 63 62 62 63
16 17 20 23 24 20 22 18 25 25 27 27 28 30 32 34 36 35 44 55 57 58 60 62 64 65 63 65 65 66 58 54 56 58 56 62 62 62 63 64 63 63 62 65 64 65 64 64 62
14 15 19 22 22 22 20 18 21 24 22 25 30 31 34 35 35 33 48 54 56 58 60 62 64 63 64 64 64 60 60 54 56 56 61 64 65 63 62 63 63 64 67 63 64 64 64 66 64
15 13 16 20 20 19 22 20 20 21 24 28 30 31 33 32 31 42 51 55 56 57 59 62 63 63 63 62 62 63 62 59 57 59 60 66 67 65 63 60 64 64 65 64 62 64 62 65 65
16 18 13 17 17 19 20 18 22 26 28 30 29 31 28 29 43 48 52 53 55 57 59 60 61 62 62 62 61 61 62 62 62 62 63 65 65 64 65 64 63 64 63 63 63 64 63 65 65
18 19 13 17 16 15 18 18 22 29 27 27 28 28 38 43 47 50 52 53 54 56 58 58 60 60 60 60 60 61 62 61 64 62 60 61 63 66 63 62 63 62 62 62 62 63 65 64 65
17 16 18 18 18 11 16 22 27 29 28 27 24 27 43 45 50 50 51 53 54 56 57 59 59 59 59 59 60 61 62 62 62 62 63 62 63 61 61 61 62 62 62 61 62 64 63 65 65
17 17 16 18 18 17 17 23 22 24 24 25 26 29 39 47 49 50 51 53 54 56 57 58 58 57 58 58 59 61 61 62 63 62 62 64 63 60 60 62 63 62 62 62 64 65 63 64 63
13 14 17 20 16 15 19 19 27 27 27 28 32 31 40 47 48 49 50 52 54 55 55 57 56 56 57 58 58 63 62 60 64 63 62 62 61 60 60 60 61 61 62 63 64 64 63 62 63
15 17 20 20 22 18 19 19 25 28 28 33 32 34 43 47 47 48 50 52 53 54 54 54 55 55 56 56 57 62 60 59 64 62 63 64 63 58 58 58 59 58 58 62 62 60 60 61 61

GFSSGP_sfc_dewp_030.txt.gz
Dewpoint
61 50 41 38 36 28 29 25 25 31 31 30 30 28 28 29 26 33 50 49 54 64 66 68 71 71 70 70 69 69 68 68 68 66 65 64 62 61 60 60 60 60 60 60 60 61 62 62 62
45 36 41 39 31 28 23 21 23 32 37 33 32 33 31 30 30 40 44 49 52 65 67 65 72 71 71 70 70 70 70 69 68 67 65 65 64 62 61 62 62 62 62 62 62 63 63 64 64
55 46 37 34 34 29 24 30 34 39 41 32 30 31 28 33 35 41 50 50 54 64 66 66 72 72 72 71 71 70 70 70 69 67 66 65 65 64 64 64 64 64 65 65 65 65 65 65 65
45 40 37 36 34 30 30 35 37 43 39 32 29 27 30 37 35 39 45 46 48 58 63 69 72 72 72 72 71 71 70 70 69 67 67 67 66 67 67 66 65 65 66 67 67 66 66 66 68
41 36 32 27 25 25 25 29 36 36 34 31 29 27 34 37 39 40 46 47 48 49 60 69 72 72 72 72 71 71 71 70 70 69 68 68 68 68 68 67 66 68 68 68 67 67 68 67 67
35 34 31 29 27 25 23 25 29 31 33 35 30 30 34 37 39 39 44 51 47 51 59 70 72 72 72 72 72 71 71 71 71 70 70 69 69 69 69 69 68 69 68 67 66 65 66 68 68
34 32 29 28 27 26 23 28 28 27 30 29 31 30 35 40 42 47 47 50 53 51 56 70 70 72 73 72 72 71 71 71 71 70 71 70 70 70 70 70 70 69 68 66 64 64 64 65 67
32 31 30 30 29 27 27 24 27 27 26 34 34 33 35 43 42 42 40 40 47 49 50 69 70 69 70 71 72 72 72 71 71 71 71 71 71 70 71 70 71 69 68 65 64 64 64 64 65
31 27 27 28 28 26 28 26 28 28 28 30 32 32 33 35 34 36 40 37 37 42 51 61 68 69 69 67 70 72 72 72 72 71 71 71 68 65 67 68 69 69 67 65 65 64 64 64 64
34 29 28 30 30 28 28 27 29 31 31 32 32 32 33 33 35 37 38 38 40 38 47 53 59 67 68 64 67 71 70 70 70 68 68 69 67 67 65 66 70 68 67 66 65 64 64 63 61
37 32 31 31 34 32 32 32 32 31 30 33 33 33 33 34 40 40 36 37 39 40 43 52 63 66 66 64 64 70 68 68 68 67 68 69 68 68 66 64 65 66 66 63 64 64 62 62 60
30 35 34 33 34 34 32 32 32 32 32 33 35 35 35 37 39 38 37 37 38 41 52 55 63 67 66 64 64 69 68 67 66 67 69 68 68 69 67 64 66 65 64 65 65 63 63 63 63
30 29 30 32 33 33 32 30 29 30 33 33 33 35 37 37 39 41 41 39 44 49 54 57 65 66 68 70 65 67 68 67 66 68 68 68 68 67 67 66 66 66 66 65 64 64 64 63 62
30 29 28 28 28 28 28 28 28 30 34 33 34 35 36 36 37 40 43 48 53 56 57 59 66 68 68 66 71 70 69 68 67 68 68 69 68 68 67 68 66 66 66 65 65 64 64 63 62
26 28 29 29 28 28 29 29 29 30 30 31 32 33 34 36 35 38 42 52 58 58 59 61 66 70 70 70 69 74 70 69 68 68 69 68 68 68 69 67 67 66 67 66 66 65 66 64 62
25 25 26 28 29 29 29 29 31 31 30 31 32 33 34 37 35 39 46 52 61 61 59 64 55 69 71 71 70 69 69 69 69 67 67 67 69 68 69 67 66 66 68 67 66 65 64 64 63
25 24 25 26 28 28 29 29 31 32 31 34 35 35 35 35 38 49 48 50 56 61 65 64 66 69 70 72 71 70 72 69 67 67 66 67 67 67 67 66 66 68 67 66 66 65 64 63 63
23 23 24 26 27 27 27 28 30 32 31 33 34 35 34 34 37 44 50 51 55 61 63 68 69 71 71 71 71 69 69 67 67 66 66 68 67 67 67 66 68 68 66 66 65 64 64 63 62
21 23 23 25 25 27 28 28 28 30 30 30 33 35 37 39 41 45 49 52 62 62 64 68 70 71 70 69 67 66 64 65 64 66 66 66 66 66 67 67 67 67 66 64 64 63 63 60 61
15 18 21 24 23 25 26 26 29 30 31 31 32 35 37 38 39 43 50 56 62 64 66 68 68 70 70 69 68 65 64 62 64 64 66 66 65 66 66 67 66 66 65 64 63 63 61 61 62
15 16 21 21 21 23 25 25 28 28 30 31 31 33 36 37 38 40 43 60 61 63 65 66 68 70 69 68 68 70 67 67 65 66 65 66 65 66 66 65 66 66 65 63 63 63 62 61 62
17 14 14 17 18 19 22 21 29 30 30 29 30 33 34 36 39 40 44 59 61 61 63 66 68 68 68 69 67 67 64 63 64 63 65 66 66 66 66 66 64 65 64 64 64 64 62 62 60
17 15 15 15 17 22 19 21 25 27 26 27 29 31 32 37 39 41 48 59 59 61 63 66 67 67 68 68 67 66 66 65 65 64 66 66 67 66 64 65 65 65 65 64 63 63 62 63 61
18 16 17 18 17 18 22 21 21 23 28 28 29 30 32 34 36 41 56 58 59 60 62 65 66 66 66 68 68 68 66 66 65 64 65 67 68 67 65 64 65 65 65 64 64 64 63 63 62
15 23 18 17 15 16 18 17 23 28 27 27 28 32 35 37 37 52 55 56 59 60 62 64 64 65 65 66 66 66 67 66 66 66 65 66 66 64 66 65 65 65 65 64 64 64 63 63 62
17 21 16 15 14 14 16 18 21 28 26 27 26 30 34 40 47 53 55 56 57 60 62 62 63 63 64 64 65 66 67 65 66 66 66 66 65 65 66 64 64 64 64 63 64 64 63 62 63
17 15 19 20 17 11 14 21 25 27 26 29 27 32 41 49 52 53 54 56 58 60 61 62 62 62 63 63 65 66 66 66 66 66 66 65 66 64 64 64 64 64 63 64 64 63 63 63 63
18 16 17 19 17 17 14 19 18 28 28 32 31 32 47 51 51 52 54 57 58 60 61 62 62 61 62 63 63 62 65 65 66 66 65 65 65 62 64 64 64 64 64 63 64 64 65 63 62
15 15 17 22 17 17 17 17 32 33 32 29 30 33 47 50 50 52 53 56 57 58 58 61 60 60 61 61 64 64 64 63 65 65 65 65 64 63 62 63 63 63 63 63 63 64 63 62 62
14 17 20 19 22 19 18 18 31 29 30 33 30 33 46 49 50 51 53 54 55 57 58 59 59 58 59 59 62 64 62 64 65 65 64 64 62 62 62 61 61 61 62 64 62 62 62 62 62

GFSSGP_sfc_dewp_033.txt.gz
Dewpoint
62 58 50 41 36 35 31 31 30 30 34 32 31 30 30 32 37 41 49 59 64 66 68 70 72 71 71 70 70 69 69 68 68 66 64 63 63 62 61 61 61 61 60 60 60 60 61 62 62
53 44 39 43 32 30 30 28 37 40 38 38 35 34 31 36 43 47 50 63 64 65 68 68 72 71 71 70 70 70 69 69 68 67 64 64 63 62 62 62 62 62 62 62 62 62 62 62 63
55 50 36 36 35 31 29 37 39 41 39 37 34 32 33 37 47 47 51 64 64 64 66 67 72 71 71 70 70 70 70 69 68 67 65 65 64 64 65 64 64 64 64 64 65 65 64 64 65
45 45 37 35 35 36 35 36 39 44 41 38 35 33 35 46 43 48 60 64 64 64 64 69 72 71 71 71 70 70 70 70 69 68 67 66 66 66 66 66 65 65 65 66 66 67 67 66 66
44 41 33 32 32 34 33 34 40 39 40 38 34 37 37 41 46 46 55 62 63 64 63 69 72 72 72 71 71 71 71 70 70 70 68 68 68 69 68 66 66 66 67 68 68 67 67 67 67
36 36 32 31 31 31 30 29 39 38 39 38 35 34 37 40 41 46 47 52 61 62 63 68 71 72 72 72 71 71 71 71 70 70 70 70 70 70 69 68 67 68 68 68 67 67 66 66 66
41 35 31 30 29 29 30 29 26 27 27 32 35 35 40 41 42 44 46 47 50 61 63 67 68 70 73 72 72 71 71 71 70 70 70 70 70 70 70 70 69 69 70 68 67 66 65 65 65
41 34 30 30 29 29 31 29 28 27 30 36 36 35 38 41 44 43 43 48 48 58 65 67 68 68 69 70 72 71 71 71 70 70 70 70 70 70 71 70 71 70 69 69 67 65 65 64 64
46 34 27 27 28 29 30 29 29 32 31 33 36 38 40 40 43 41 39 38 44 51 66 67 67 68 68 68 70 71 72 71 71 71 71 70 68 69 69 70 70 70 70 69 67 66 66 65 64
46 35 29 28 28 28 30 30 32 33 33 34 35 38 37 35 37 37 38 38 38 38 64 66 67 68 68 67 68 69 69 69 69 69 69 69 68 66 66 68 70 71 71 69 68 67 66 64 62
39 37 35 31 30 30 31 33 35 33 32 35 35 36 36 36 37 40 39 37 36 37 52 65 66 67 67 66 67 69 69 69 70 69 67 68 67 66 66 64 67 68 69 65 66 65 64 62 61
34 37 38 35 33 32 31 33 34 34 32 33 33 37 38 37 38 37 36 36 36 37 40 59 65 67 67 65 65 68 68 68 68 68 66 67 67 67 66 63 64 65 64 63 63 63 63 61 61
32 32 32 34 35 34 34 33 33 34 33 32 31 33 35 37 38 40 38 38 39 38 42 50 61 66 66 64 64 67 67 67 67 66 66 66 67 66 63 61 62 64 63 64 63 63 63 62 61
29 33 33 31 30 30 30 29 30 30 31 31 30 32 34 35 37 38 40 39 41 42 44 46 60 64 64 63 64 67 67 67 66 65 66 67 67 64 64 64 64 63 62 61 62 61 61 60 60
25 24 25 27 30 29 28 27 28 30 31 31 30 29 30 33 35 37 39 41 44 48 45 47 52 64 64 63 66 66 66 66 65 65 67 67 65 63 64 63 63 63 63 62 62 62 62 62 60
28 26 23 25 26 27 29 26 29 31 31 34 32 31 33 35 37 35 39 42 47 48 47 51 65 66 66 64 67 68 67 66 65 64 66 66 64 63 64 63 63 63 63 62 62 62 61 61 61
26 25 24 25 26 26 28 27 30 31 31 31 32 32 32 33 37 41 43 39 41 46 48 54 63 67 68 68 67 67 67 64 63 62 64 65 65 65 64 64 63 64 63 63 62 61 61 60 60
22 24 24 24 26 26 26 26 27 28 28 30 31 32 33 34 36 36 42 43 46 53 59 59 66 68 68 69 68 67 65 63 62 62 64 64 65 65 64 64 63 64 62 61 61 61 61 60 60
21 24 24 25 25 25 25 26 27 29 30 29 31 34 35 38 37 38 43 44 55 55 58 63 67 68 69 67 67 65 63 62 62 64 62 65 64 65 64 64 63 63 62 61 61 60 59 58 59
20 17 16 20 25 24 24 25 28 28 27 27 27 30 34 39 38 39 43 47 55 58 63 64 67 68 67 67 66 64 61 60 60 61 61 63 63 62 63 63 63 62 62 61 61 61 58 57 58
18 17 15 16 19 19 19 21 23 24 27 28 31 33 35 36 37 37 36 56 59 61 62 63 65 67 67 66 64 63 62 61 60 61 62 62 62 63 62 63 62 62 62 60 59 59 58 56 58
17 18 18 17 18 15 21 17 19 20 23 25 26 30 32 31 35 37 37 57 59 61 62 64 67 66 65 64 63 61 59 59 59 59 61 63 62 63 64 63 62 61 61 60 60 61 59 59 57
17 21 18 18 16 15 16 18 16 25 26 30 30 30 32 35 36 37 39 58 60 61 63 66 66 64 65 62 62 61 58 60 60 61 62 62 62 63 63 63 62 61 61 60 60 59 59 59 57
15 18 18 18 17 15 15 16 14 17 20 27 29 31 30 31 33 46 57 59 60 62 64 64 64 63 63 62 62 58 59 60 59 61 60 60 61 62 62 62 61 61 61 60 60 60 59 60 60
10 12 13 16 15 14 15 17 17 23 26 27 26 28 30 34 43 55 57 58 60 62 63 63 63 62 61 64 61 61 60 59 59 61 61 61 61 61 61 61 61 61 61 61 61 60 60 60 60
8 13 12 14 15 14 16 15 17 22 22 25 24 27 40 44 53 55 56 57 59 62 62 62 62 61 62 61 61 61 60 61 62 61 61 61 61 61 61 61 61 61 61 61 61 61 60 60 59
7 8 15 13 16 15 15 16 17 17 18 24 27 35 49 52 53 55 56 57 60 61 61 62 61 61 61 61 61 61 61 61 61 61 61 62 61 60 61 61 61 61 61 61 60 60 60 60 58
25 14 16 13 12 14 17 14 16 17 23 20 32 42 50 52 53 54 55 58 59 60 61 61 61 60 61 61 60 60 61 62 62 61 60 61 61 61 60 61 61 61 60 60 61 60 61 59 59
24 13 10 16 14 14 17 17 20 19 20 26 34 48 50 50 52 53 56 57 58 59 59 60 60 60 60 59 59 61 61 62 61 61 61 60 60 60 61 62 61 61 61 61 60 60 61 60 59
23 21 10 14 16 16 19 16 23 27 31 32 41 48 49 50 52 53 55 56 57 58 59 59 59 58 59 60 60 61 61 62 61 61 61 58 59 59 59 61 61 61 61 60 60 60 60 61 60

GFSSGP_sfc_dewp_036.txt.gz
Dewpoint
62 57 49 42 34 36 32 34 31 32 33 37 34 30 30 35 37 38 50 60 65 65 70 71 72 71 71 70 70 69 69 68 68 66 64 63 62 62 62 61 61 61 61 60 60 60 60 61 61
53 46 39 42 32 30 31 29 29 40 40 40 34 32 38 42 46 50 56 63 64 66 69 69 72 71 71 71 70 70 69 69 68 67 64 63 63 63 63 62 62 62 62 62 62 62 63 63 62
53 50 36 37 35 31 29 35 41 40 40 41 38 34 37 43 49 50 55 64 65 65 68 68 72 71 71 71 70 70 69 69 69 67 66 65 64 65 64 63 63 63 63 64 65 65 65 65 65
45 45 38 34 34 35 34 34 36 40 40 42 42 35 37 48 48 49 63 64 63 64 66 69 72 71 72 71 71 70 70 69 69 68 68 67 65 66 66 64 65 65 65 66 66 67 67 67 66
44 40 33 33 33 34 35 35 34 40 43 44 43 36 38 44 50 62 63 62 62 63 63 68 72 72 72 71 71 70 70 70 70 69 69 68 68 68 66 66 66 66 66 67 67 68 67 67 67
36 37 33 31 31 32 33 32 36 39 41 43 41 39 36 42 52 61 63 62 61 61 61 66 71 72 71 71 71 70 70 70 70 70 70 69 69 69 68 67 66 66 67 68 68 67 67 67 66
39 36 32 31 30 31 31 33 31 36 36 35 35 37 37 41 44 57 61 62 62 61 60 65 67 70 72 71 71 71 70 70 70 70 70 70 70 70 70 69 68 67 68 69 69 68 67 66 65
42 36 31 30 29 29 31 31 29 29 33 37 38 38 37 40 43 47 54 56 61 62 61 64 65 67 68 69 72 71 71 70 70 70 70 70 70 70 70 69 70 69 69 70 69 68 67 66 65
46 37 30 28 28 29 30 30 31 33 32 34 35 36 39 45 44 43 42 44 51 60 62 65 65 64 67 67 69 71 71 71 71 70 70 70 68 68 68 69 69 69 70 70 69 69 68 66 65
46 43 38 32 29 28 28 28 29 33 35 34 38 39 39 39 40 41 40 39 45 56 62 65 65 65 64 65 66 69 68 68 68 67 67 68 67 67 68 69 70 70 71 71 70 69 67 66 63
44 44 44 40 34 31 31 31 31 32 33 34 34 36 36 38 38 38 37 37 36 47 61 65 65 66 66 64 66 68 68 67 68 67 67 68 67 67 67 66 66 68 70 68 69 67 66 63 62
38 41 43 42 39 36 33 32 32 33 33 36 35 36 37 36 37 37 37 37 36 36 56 64 65 66 66 65 65 67 67 67 67 68 68 67 67 65 64 65 64 65 66 65 64 64 63 63 62
31 36 37 39 39 38 37 35 34 34 36 36 36 33 35 38 38 39 40 38 36 36 39 62 64 65 66 65 66 66 67 67 67 67 67 67 66 65 65 64 63 64 63 63 62 62 63 62 62
25 25 31 33 32 33 33 33 32 33 34 31 31 33 33 35 35 36 38 40 38 39 40 54 64 65 66 65 65 66 67 66 66 67 67 66 66 65 65 63 61 63 63 63 63 63 62 62 61
22 23 24 24 26 32 32 30 30 31 31 30 31 32 33 33 34 36 37 40 40 40 43 48 61 65 65 65 64 66 66 67 66 66 66 65 66 65 64 63 63 62 62 61 63 62 61 60 60
26 25 21 24 25 26 27 25 30 32 31 33 32 31 31 32 34 36 38 39 41 44 46 45 54 63 65 65 63 66 67 67 66 65 66 66 66 65 63 63 62 63 62 62 61 61 60 60 60
23 25 27 26 27 26 26 24 28 31 30 31 32 33 33 32 36 38 38 41 42 45 46 45 58 61 63 63 65 66 66 66 65 65 67 67 67 64 63 63 62 62 62 61 61 60 60 59 59
22 23 25 27 27 26 26 25 26 27 27 28 28 29 31 32 34 36 38 41 43 45 47 51 62 64 65 65 66 66 64 63 63 64 66 65 65 65 63 63 62 62 62 61 61 60 60 59 59
23 23 24 27 26 26 26 26 27 29 29 30 30 30 31 33 35 36 39 41 47 54 57 59 64 65 67 65 65 63 62 61 61 63 64 64 64 64 63 63 62 62 62 60 60 60 60 60 59
20 21 22 21 19 24 26 25 26 27 27 27 28 30 32 33 35 38 40 50 53 55 58 63 65 67 66 66 65 63 61 60 60 62 63 64 64 63 63 63 62 62 61 60 60 59 58 58 58
19 18 19 20 19 17 17 17 20 21 24 26 28 31 32 33 32 37 39 47 54 58 62 64 66 66 66 65 63 61 60 60 59 59 60 63 63 63 63 62 62 61 61 59 59 58 57 55 56
17 20 20 19 18 15 17 13 17 17 19 21 22 27 28 28 36 37 37 54 56 60 62 65 66 66 65 64 62 59 58 58 58 59 60 62 62 62 63 62 62 61 60 59 58 59 58 56 55
15 20 22 20 20 18 17 16 14 19 18 21 21 25 25 25 30 34 36 54 59 61 63 65 65 65 63 63 62 59 58 58 59 60 61 61 62 62 63 62 61 60 59 59 59 59 58 58 56
10 17 19 18 18 16 15 15 13 14 15 21 28 29 27 28 31 43 52 59 60 63 65 64 63 63 62 62 60 58 59 58 60 60 60 60 60 61 62 62 61 60 59 59 59 58 58 58 58
9 9 13 12 16 15 17 16 14 20 21 21 20 23 27 29 38 56 58 59 62 63 64 63 62 61 61 60 60 59 59 59 60 59 59 59 60 60 60 60 60 60 60 60 60 59 58 58 58
7 9 13 10 15 14 17 15 17 19 17 17 19 27 27 34 48 56 58 60 62 63 63 62 61 61 61 60 60 59 60 60 60 59 60 60 60 60 60 60 60 60 60 61 60 59 59 59 58
19 6 7 11 13 14 17 16 18 18 16 17 18 27 44 53 55 56 58 61 61 62 62 61 60 60 59 60 60 60 61 60 59 60 60 60 60 60 60 60 60 60 60 60 59 59 59 59 58
18 24 11 13 12 10 15 18 18 18 19 22 22 31 51 54 55 56 59 60 61 61 61 60 60 60 60 59 60 60 60 61 61 60 60 60 59 59 60 60 60 60 60 60 60 59 61 59 58
17 21 18 14 13 12 13 15 22 20 22 22 23 45 52 54 54 57 59 60 60 61 60 60 60 60 60 59 59 59 60 61 60 59 60 60 59 59 60 61 61 60 60 60 59 59 60 57 57
20 24 22 13 11 18 15 14 19 22 21 24 30 50 52 54 54 57 58 59 59 60 60 59 59 59 59 58 60 60 61 60 60 60 60 59 59 59 60 61 60 61 60 59 59 59 60 60 58

GFSSGP_sfc_dewp_042.txt.gz
Dewpoint
65 58 44 40 30 35 31 28 30 29 34 39 37 39 41 40 37 34 51 60 62 64 69 71 73 72 71 71 71 70 70 69 68 68 67 66 65 63 62 62 62 61 61 60 60 60 60 60 60
57 48 42 40 28 30 20 32 30 29 40 40 38 36 38 37 43 46 49 62 62 67 70 70 73 72 72 71 71 70 70 69 69 68 66 65 65 64 63 62 62 62 62 61 61 61 61 61 61
48 43 38 38 32 27 22 32 33 37 38 38 39 37 40 40 48 48 56 64 65 67 69 69 73 72 72 71 71 70 70 69 69 68 66 65 64 65 64 63 62 62 63 62 63 63 64 64 64
47 43 36 34 34 34 29 34 37 34 33 39 41 35 38 47 49 50 62 64 64 66 68 70 72 72 72 72 71 71 70 69 69 68 67 66 65 66 65 64 64 63 64 64 64 65 65 66 66
43 38 31 32 32 34 35 36 34 32 32 39 42 36 40 48 54 61 62 63 64 66 67 68 72 72 72 72 72 71 70 70 70 69 68 67 67 67 65 64 64 64 65 65 66 66 66 67 67
38 38 33 25 27 31 32 33 33 32 34 42 40 37 41 45 56 60 62 62 62 64 66 67 72 72 72 72 71 71 70 70 70 69 69 68 68 68 66 65 65 65 66 67 67 67 68 68 67
36 34 32 32 32 31 32 33 31 31 33 39 41 37 38 39 52 61 62 61 61 62 64 65 69 70 72 72 71 71 70 70 70 70 69 69 69 68 68 68 67 67 67 67 68 68 69 69 67
38 35 33 32 30 28 30 31 32 32 32 36 39 38 37 38 56 61 61 60 59 59 61 62 67 68 68 70 72 71 71 70 70 70 70 70 69 69 69 68 69 67 67 68 69 69 70 69 69
40 33 31 31 29 28 30 30 31 32 33 36 35 39 39 43 56 56 57 56 60 60 58 59 63 66 67 68 69 71 71 71 70 70 70 69 67 68 67 68 68 68 68 69 69 70 70 69 68
42 36 31 30 30 29 29 33 32 31 33 34 35 38 39 42 43 49 52 54 55 59 61 58 59 64 64 65 67 68 68 68 68 68 68 68 67 67 68 68 68 68 69 69 70 70 70 68 66
46 42 39 34 32 31 34 36 35 32 31 32 34 37 37 39 40 43 46 51 53 54 59 61 59 61 63 63 64 66 68 67 68 67 67 68 67 67 68 67 67 68 69 67 69 70 69 67 65
41 44 43 42 40 43 38 38 38 37 35 35 35 36 39 38 38 38 41 44 44 48 53 60 61 61 62 61 63 63 66 66 66 67 67 67 66 66 67 66 66 66 67 68 68 68 68 67 65
42 41 44 45 44 45 45 43 42 40 41 40 38 39 40 40 39 39 39 41 43 41 43 50 62 62 62 61 61 63 63 65 64 65 66 66 66 65 65 65 64 64 64 66 66 66 66 65 64
26 34 39 38 36 34 35 35 36 39 40 39 39 39 37 36 36 36 38 39 41 42 42 42 57 63 63 62 61 62 62 64 64 64 66 66 65 65 64 64 64 63 64 64 65 65 65 64 63
24 22 23 24 27 29 33 32 33 34 35 35 34 34 34 35 35 36 37 39 40 41 43 43 48 61 63 63 62 61 62 64 64 64 66 66 65 64 63 63 63 63 64 64 64 64 63 63 62
23 20 20 23 24 25 28 26 30 33 33 33 34 34 35 36 36 37 39 40 41 42 42 44 49 62 63 64 64 63 63 64 64 64 66 66 65 64 63 63 62 63 63 63 63 63 63 63 62
24 21 21 22 24 25 25 24 31 32 32 33 33 33 34 34 36 39 39 40 41 42 43 43 48 59 62 64 64 64 64 65 65 65 66 66 66 65 64 63 63 63 63 63 62 62 63 62 61
20 23 23 25 26 24 24 24 26 28 29 30 31 31 32 32 33 35 37 39 40 42 44 45 46 53 62 63 63 64 65 65 66 65 66 66 66 65 64 64 64 63 62 62 61 61 61 61 61
21 22 24 26 28 26 24 24 25 28 28 28 29 30 30 31 32 36 38 40 42 45 46 47 48 54 63 63 62 62 64 64 65 65 66 66 66 65 65 64 63 63 62 62 61 61 61 61 61
20 20 20 22 23 23 23 21 23 23 25 28 29 30 31 32 34 35 36 38 41 43 44 47 50 58 61 63 62 63 62 62 63 65 66 66 66 65 65 64 63 63 62 61 61 61 60 60 61
19 19 20 21 23 22 22 21 22 24 23 21 22 26 31 31 33 34 35 38 38 42 46 50 53 61 62 62 61 61 60 61 61 63 64 65 65 65 65 63 62 62 62 61 61 61 59 58 58
12 20 21 23 22 18 20 17 19 20 20 21 21 22 23 29 32 33 33 35 37 38 52 58 61 62 63 62 61 61 61 60 60 61 62 63 64 64 63 62 62 62 62 61 61 61 60 58 57
13 14 14 20 19 18 18 17 15 17 16 17 17 17 18 25 27 29 30 32 32 43 57 61 63 63 63 62 61 59 59 58 59 60 61 61 62 63 63 62 63 62 62 61 61 60 59 59 57
15 16 16 19 20 16 16 16 14 12 11 12 18 19 20 20 23 27 30 33 37 55 60 62 63 62 62 61 60 60 59 59 59 59 60 60 61 62 62 62 63 62 61 60 60 60 59 59 59
10 8 11 12 15 12 17 17 12 18 21 20 24 22 24 25 26 28 28 44 52 58 62 62 62 61 61 60 60 59 59 59 59 59 59 59 60 60 61 61 61 61 61 60 60 60 59 59 59
9 8 10 9 14 12 16 16 15 20 19 20 23 22 23 24 24 26 28 47 56 61 62 62 61 60 60 60 59 59 59 59 59 59 60 60 60 61 61 61 61 61 61 61 60 60 60 60 59
12 8 8 5 11 5 14 14 18 18 17 18 23 22 23 25 27 29 50 57 60 61 61 61 60 59 59 59 59 59 59 59 59 60 60 60 60 60 61 61 61 61 61 61 60 60 60 60 60
14 12 7 8 3 7 12 14 15 18 20 19 23 23 25 27 31 54 58 59 61 60 60 60 59 59 59 59 59 59 59 60 60 60 60 60 60 61 61 60 60 60 61 61 61 60 60 60 60
17 17 16 11 11 10 10 13 21 20 22 25 23 24 27 39 43 57 58 59 60 60 60 59 59 59 59 59 60 60 59 60 60 60 60 60 59 59 60 60 60 60 60 61 60 60 60 60 59
20 19 22 17 15 12 14 13 17 19 23 28 26 29 38 53 54 57 58 59 60 59 59 59 59 58 59 60 59 59 59 59 59 59 60 59 59 60 60 61 61 60 61 61 60 60 60 59 58

GFSSGP_sfc_dewp_045.txt.gz
Dewpoint
59 58 43 40 23 31 20 15 25 31 34 37 37 43 39 39 35 36 55 58 62 63 68 71 73 73 72 71 71 70 70 70 69 69 68 67 67 64 63 63 62 62 62 61 61 61 61 61 62
57 45 43 39 22 15 9 23 29 22 35 37 38 36 42 42 40 43 45 61 62 64 69 67 73 73 72 72 71 71 70 70 69 69 68 67 67 66 64 63 62 62 62 62 61 62 62 62 62
51 42 34 34 22 12 11 25 22 34 35 35 36 37 39 39 45 44 54 61 63 66 66 68 73 73 73 72 71 71 71 70 70 69 68 67 67 67 66 65 63 63 62 62 62 64 64 64 64
43 43 38 31 26 23 20 32 36 34 33 37 37 34 38 45 47 47 60 61 62 63 64 68 73 73 73 72 72 71 71 70 70 69 69 68 67 68 67 66 65 64 64 64 64 65 66 66 65
43 38 23 28 22 28 34 33 34 32 32 32 41 37 38 45 52 59 61 61 60 62 64 64 73 73 73 73 72 71 71 70 70 70 69 69 68 68 68 67 65 65 65 65 65 66 67 67 68
35 39 28 16 19 24 27 31 31 28 29 35 41 37 40 48 53 59 60 62 61 64 66 65 72 73 73 72 72 71 71 70 70 70 70 69 69 68 68 68 66 65 66 66 67 67 68 68 67
31 36 25 26 22 19 20 27 26 27 32 36 40 37 41 41 53 60 61 62 64 64 66 66 67 71 72 72 72 71 71 70 70 70 69 69 69 69 68 68 68 67 68 68 68 68 69 68 67
32 35 22 23 18 19 30 30 31 32 32 35 39 38 37 42 57 60 60 60 61 63 63 64 67 66 67 67 72 72 71 71 70 70 70 70 69 69 69 68 68 68 68 68 69 69 69 69 68
39 26 22 22 24 20 30 28 31 32 31 32 34 37 40 53 59 58 59 59 59 59 62 63 61 66 67 66 68 72 71 71 71 70 70 69 64 65 65 66 68 69 68 69 69 69 70 70 68
41 33 26 26 25 27 25 29 30 31 32 32 34 38 38 41 48 52 55 54 58 59 60 60 62 64 66 64 68 69 67 67 66 66 67 66 65 65 63 65 68 70 69 70 70 70 70 69 64
41 38 35 30 27 29 27 26 31 30 30 32 32 35 37 38 40 42 42 50 53 57 59 61 63 65 65 64 64 66 67 67 68 68 69 68 65 66 65 63 64 65 68 63 66 66 66 66 65
33 37 39 39 36 34 31 31 31 32 32 34 37 40 39 39 40 40 41 41 43 49 56 61 64 64 66 64 63 64 64 66 65 66 70 68 67 66 64 62 62 65 63 64 66 65 67 68 67
35 32 35 37 40 42 43 42 41 40 41 43 44 44 42 41 42 45 44 44 46 49 51 55 64 66 67 67 64 65 65 64 65 65 67 66 64 66 64 64 62 63 65 65 64 65 67 67 67
31 35 34 35 41 43 41 39 40 40 42 41 40 39 39 39 41 42 44 46 48 51 53 54 58 68 66 67 67 65 66 64 64 64 65 68 65 66 64 64 64 65 65 63 63 65 66 69 67
25 26 27 34 37 38 38 37 36 38 38 38 37 37 38 38 39 40 42 51 50 50 55 58 59 60 67 68 67 66 64 64 64 64 66 67 67 67 66 63 64 64 65 65 65 65 67 66 69
22 23 22 25 25 29 34 31 33 33 33 34 34 35 36 39 40 41 44 49 52 53 55 59 49 52 64 67 67 65 64 64 64 64 65 67 67 67 66 63 63 65 64 64 63 61 65 68 68
21 17 21 22 25 25 27 27 29 30 31 34 36 37 37 37 39 47 45 46 53 55 58 57 57 54 62 67 65 66 67 64 64 65 65 67 67 67 66 64 66 66 63 64 63 63 65 68 68
16 19 18 20 23 25 25 26 27 29 30 32 33 34 35 37 39 43 45 48 52 55 59 60 57 60 62 63 66 65 65 65 65 65 66 68 67 67 66 65 66 67 66 63 64 65 66 64 64
21 21 20 22 25 25 25 26 26 28 29 29 30 33 35 37 38 42 45 49 50 57 58 61 58 61 60 62 62 63 64 65 66 66 68 68 68 67 67 65 67 67 66 65 66 65 65 64 64
22 21 21 23 23 25 26 26 28 28 29 30 31 33 35 36 37 41 45 48 52 55 58 60 59 59 61 62 65 65 65 65 66 67 68 68 68 67 67 67 66 65 63 66 66 66 64 64 64
20 21 21 21 23 24 24 24 26 26 28 28 29 30 32 34 35 39 42 47 49 53 57 57 58 60 63 65 66 66 66 66 65 66 67 67 68 68 68 67 66 66 66 65 66 65 64 61 61
18 19 20 21 22 19 23 18 23 24 25 27 28 28 30 32 32 37 40 44 49 50 49 53 60 63 64 66 66 66 63 63 64 66 67 67 68 68 67 66 67 67 66 66 65 64 63 62 60
16 18 17 17 17 19 19 18 19 21 21 22 25 26 28 29 30 31 33 38 40 45 46 54 63 65 66 66 67 65 65 64 65 66 68 68 68 68 66 67 67 67 65 66 66 64 62 62 61
14 16 18 19 17 14 16 16 15 15 18 20 21 22 25 28 28 30 33 36 40 40 48 61 65 67 66 66 67 67 67 65 65 66 66 66 66 66 66 65 66 67 66 65 64 65 64 63 62
11 16 11 10 12 12 14 14 16 20 21 20 22 24 27 30 30 32 34 35 39 47 57 63 65 66 66 66 66 66 66 67 67 66 64 64 63 64 66 66 66 65 66 65 64 64 64 63 62
10 12 8 2 6 7 13 12 12 20 21 24 25 28 30 32 35 37 37 37 37 49 60 63 65 66 65 65 65 65 66 63 63 64 63 63 62 64 67 66 66 65 64 64 64 62 62 63 62
11 10 12 10 13 6 10 14 15 18 20 18 20 26 33 36 41 47 47 51 51 59 63 64 65 65 65 64 64 65 64 64 63 65 66 63 65 64 65 65 65 64 64 64 64 62 63 64 64
14 13 9 8 6 3 8 12 10 18 19 25 28 29 32 36 43 52 52 58 60 63 65 66 65 64 64 64 64 63 64 64 64 64 65 65 65 64 65 64 64 64 63 64 65 63 63 63 62
16 15 14 12 9 6 7 10 23 22 27 30 30 30 31 34 47 55 56 59 62 64 64 64 64 63 63 63 63 63 63 64 64 64 64 64 65 64 63 63 62 62 63 64 64 64 63 62 62
24 21 21 14 10 11 10 10 21 26 28 32 30 29 33 38 49 56 58 59 62 63 63 63 63 62 62 62 62 63 63 63 64 64 64 63 62 62 61 62 61 62 62 64 63 62 62 62 60

GFSSGP_sfc_dewp_048.txt.gz
Dewpoint
59 50 34 34 25 17 11 9 14 31 34 36 37 38 36 36 36 37 52 54 54 57 65 70 74 74 74 73 72 72 71 71 71 71 70 70 69 68 67 66 63 63 62 62 61 61 62 62 61
45 46 34 27 16 11 7 12 19 27 35 34 35 39 38 38 38 39 44 56 56 60 66 64 73 73 73 72 72 72 71 71 70 70 70 69 68 68 66 66 64 64 63 63 62 61 62 63 63
50 35 26 19 14 9 7 9 18 30 34 33 35 37 39 42 44 39 51 57 57 62 65 64 73 73 72 72 72 71 71 71 70 70 70 69 69 68 67 67 66 64 63 63 62 64 64 65 65
39 32 26 23 13 12 11 28 24 35 31 33 35 35 38 43 46 43 54 54 56 58 62 68 73 73 73 72 72 71 71 71 70 70 70 69 69 68 68 67 67 65 64 63 64 65 65 65 65
38 29 17 16 13 13 16 16 24 32 29 32 35 37 37 44 48 48 53 52 54 55 58 64 73 73 73 73 72 72 71 70 70 70 70 69 69 69 68 68 66 65 65 65 65 66 67 67 67
29 31 17 11 13 13 16 20 23 26 26 30 37 39 38 47 50 49 51 53 51 56 59 60 73 73 73 73 72 72 71 71 70 70 70 70 69 69 68 68 67 67 67 66 66 67 67 67 68
32 25 17 14 13 14 14 17 19 21 24 31 39 38 40 44 48 52 52 55 56 58 61 62 66 71 73 73 72 72 71 71 70 70 70 70 70 69 69 69 68 68 69 69 68 68 68 68 68
32 27 23 17 16 16 17 22 17 18 27 35 39 37 39 44 53 54 52 54 56 58 58 62 64 63 65 65 73 73 72 71 70 70 70 70 70 70 69 69 69 69 69 69 69 69 69 69 68
37 29 25 20 17 17 18 17 18 22 29 33 34 37 42 50 52 49 48 48 49 52 59 61 59 62 63 59 63 72 72 72 71 70 70 69 62 64 64 65 67 69 69 69 69 69 70 70 69
38 32 29 25 22 21 18 18 20 27 27 33 33 38 37 43 50 46 46 46 47 49 55 59 63 63 63 58 63 68 65 65 65 63 64 64 61 61 60 63 68 70 70 70 70 70 70 69 63
37 35 31 31 28 25 22 20 20 25 27 33 34 35 36 38 41 43 43 45 46 49 52 57 65 66 64 61 60 63 64 63 65 65 67 66 60 61 61 59 62 64 68 63 65 67 66 65 63
32 35 36 34 33 30 27 26 25 22 24 30 33 35 38 40 40 39 39 40 42 46 51 56 63 67 68 62 61 62 61 62 63 64 69 67 64 65 63 59 59 62 60 62 62 61 66 65 64
30 31 33 34 36 37 37 33 32 29 30 31 31 37 40 41 42 43 43 42 44 45 47 50 58 68 69 70 63 64 65 62 64 64 66 65 62 65 63 63 58 59 58 59 61 62 64 65 65
26 28 30 31 31 35 35 37 36 36 38 38 40 40 39 38 39 41 44 45 46 47 49 50 55 65 68 70 71 67 67 64 63 63 63 69 65 67 62 63 60 58 58 57 61 60 62 63 63
21 22 25 29 32 31 35 34 34 34 35 36 38 39 38 38 38 40 42 46 47 47 52 55 58 61 67 69 69 69 64 65 62 63 67 67 69 68 67 62 61 59 61 62 61 61 63 61 64
20 20 19 22 26 30 33 33 33 32 34 36 37 36 36 37 38 39 41 46 50 52 53 55 49 50 61 67 65 64 62 63 63 63 64 67 69 68 68 63 62 61 61 60 59 59 58 58 66
21 15 17 18 21 25 31 32 33 33 32 34 35 34 34 35 38 42 45 45 48 53 55 53 57 55 59 66 62 65 68 65 63 64 64 67 68 68 66 64 63 66 61 59 58 58 58 57 67
13 15 15 17 18 21 24 26 28 29 29 32 33 33 34 36 37 40 43 45 48 50 55 62 61 64 63 60 63 61 62 64 63 63 64 67 68 68 67 65 66 66 62 58 59 61 58 64 67
14 17 16 17 18 19 23 24 26 28 28 30 31 33 34 35 36 39 41 44 46 52 58 63 61 67 63 56 57 60 60 63 63 64 67 68 68 68 68 65 67 67 63 63 63 61 64 66 65
13 18 20 21 22 22 22 23 25 26 27 29 30 32 33 35 36 38 41 44 47 52 57 62 62 65 64 59 63 61 62 62 64 65 68 68 68 69 68 68 67 67 63 65 65 65 63 61 64
15 15 19 20 21 24 24 24 25 25 28 29 31 32 33 34 35 37 38 42 43 48 54 57 62 63 65 65 64 66 66 66 65 66 67 68 68 68 68 68 67 68 65 63 67 67 65 65 63
13 12 14 18 21 19 24 18 23 24 26 27 28 29 31 32 34 35 36 39 44 45 46 52 59 63 63 67 67 70 64 63 63 65 67 68 68 69 68 68 68 67 65 66 66 66 67 66 61
13 13 15 19 20 21 19 17 20 23 23 24 27 28 30 30 31 31 31 34 36 40 42 52 57 60 65 67 68 66 67 64 65 65 69 70 70 68 68 68 68 68 65 67 66 67 66 63 62
16 14 14 17 17 16 19 18 17 18 21 22 24 24 26 25 29 31 33 35 36 36 40 47 54 63 67 68 68 69 68 67 65 67 67 67 68 68 68 68 68 68 67 67 68 67 65 64 61
14 17 12 9 11 13 17 16 18 20 21 20 20 23 25 28 30 34 35 35 38 40 43 49 60 65 67 67 67 68 69 70 70 69 66 67 66 66 69 68 67 66 67 67 67 67 65 64 61
14 13 13 5 5 6 13 14 15 20 20 22 22 25 27 32 36 41 45 46 43 40 46 55 60 65 67 67 68 69 70 67 67 68 66 64 64 65 69 67 67 67 66 66 66 62 61 63 62
24 13 14 11 14 3 4 15 18 18 21 23 21 24 29 33 38 44 52 51 51 44 53 58 62 65 67 67 68 69 68 68 66 68 68 64 65 64 67 67 67 66 65 65 65 59 63 63 63
26 20 12 10 11 6 5 11 12 18 17 18 26 29 32 36 40 48 54 56 57 56 60 62 65 66 67 67 67 67 67 67 68 67 65 65 66 65 66 66 65 65 64 63 64 61 62 63 63
14 12 18 19 9 4 2 6 18 19 23 29 28 30 31 33 35 50 56 59 60 60 61 65 65 65 66 66 66 66 65 65 65 65 65 66 67 66 64 64 63 62 62 62 63 62 61 62 64
25 27 23 17 16 15 11 14 25 30 30 27 27 30 31 31 30 48 58 59 60 61 63 64 65 64 65 65 65 64 64 65 66 65 65 65 65 63 62 61 60 60 59 62 62 61 60 61 62